Wind_Speed
19 20 21 21 22 22 21 20 19 20 20 20 20 20 20 20 20 19 18 17 17 17 17 17 17 17 17 17 16 16 16 15 14 14 14 13 13 13 13 13 12 11 11 11 11 11 11 10 10
19 21 22 23 23 23 22 21 20 21 21 21 21 21 21 21 20 19 19 18 18 18 18 17 17 17 17 17 17 17 16 16 15 15 15 15 14 14 14 14 14 13 13 12 12 12 12 12 12
21 22 23 24 24 23 23 21 21 22 22 22 22 22 22 22 21 20 20 20 19 19 19 19 18 18 18 18 18 18 17 17 16 16 16 16 16 16 16 15 15 14 14 14 14 13 13 13 13
22 23 24 24 24 23 23 22 23 23 23 23 23 24 23 23 22 22 21 21 20 20 20 20 20 19 19 19 19 19 18 18 18 18 17 17 17 17 17 17 17 16 16 15 15 15 15 14 15
22 24 25 25 25 24 24 24 25 24 24 25 26 25 24 24 24 23 23 23 22 21 21 22 21 21 21 21 20 20 20 20 20 20 19 19 19 19 18 19 18 18 18 18 17 17 17 17 17
23 24 26 26 26 26 26 26 27 27 27 27 27 27 26 26 25 25 25 25 24 23 23 23 23 23 22 22 22 22 22 22 22 21 21 22 21 21 20 20 20 20 20 20 19 19 19 19 18
24 25 26 26 27 27 27 28 28 29 29 29 29 29 28 27 27 27 27 27 27 26 25 25 25 25 24 24 23 23 23 24 24 23 23 23 23 23 22 22 22 21 21 21 21 21 20 20 20
25 26 26 27 28 27 28 29 29 30 30 30 30 30 29 29 28 29 29 29 29 28 28 27 27 27 26 26 26 25 25 25 25 25 24 24 24 24 24 24 24 24 23 23 23 23 23 22 22
26 28 27 27 29 28 29 29 30 30 31 31 32 32 31 30 30 30 30 30 31 30 30 30 30 29 29 28 28 27 27 27 27 27 27 27 26 25 26 26 26 25 26 26 25 25 25 24 24
28 29 28 29 30 30 30 30 30 31 31 32 33 33 33 33 33 32 32 32 32 32 32 32 32 32 31 31 30 30 29 29 29 28 28 28 28 27 27 28 28 27 27 27 27 27 27 26 26
29 29 30 31 31 31 31 31 31 32 32 33 34 35 35 35 35 34 34 34 34 34 34 35 35 34 34 33 33 32 32 31 31 31 31 30 30 30 29 29 29 29 29 29 29 29 29 29 29
30 30 31 31 32 33 33 33 33 33 34 34 35 36 36 36 36 36 36 36 36 36 36 36 36 36 36 36 35 35 34 34 33 33 33 32 32 31 31 30 30 30 31 31 31 31 31 31 31
31 31 32 32 33 34 35 36 35 35 36 36 36 37 37 37 38 38 38 38 38 38 38 38 38 38 38 38 37 37 36 36 35 35 34 34 33 33 33 32 31 32 32 33 33 33 33 33 33
32 33 33 33 34 35 36 36 36 35 37 38 38 38 38 39 39 39 39 39 40 40 40 40 40 40 39 39 39 38 38 38 37 37 36 35 35 35 35 34 33 34 34 34 34 35 35 35 35
33 34 34 34 35 36 38 38 36 36 38 39 39 39 39 39 40 40 41 41 41 41 41 41 42 42 41 41 40 40 39 39 39 38 38 37 37 37 37 36 36 36 36 37 36 36 36 37 37
34 35 35 34 35 37 39 38 37 38 39 40 40 40 40 40 41 41 41 42 42 42 42 43 43 43 43 43 42 41 41 40 40 40 40 39 39 38 38 38 37 38 38 39 38 38 38 39 40
34 35 35 35 35 37 38 38 38 38 40 41 41 42 42 42 42 42 43 43 43 43 43 44 44 44 44 44 43 43 42 42 41 42 41 41 40 40 40 40 40 39 40 40 41 40 40 41 41
35 35 35 36 36 37 38 38 38 38 40 41 41 42 42 42 43 43 44 44 44 44 44 45 45 46 46 46 45 45 45 44 44 43 43 43 43 42 42 42 41 42 42 42 42 42 42 42 42
35 36 36 36 38 39 39 39 38 39 39 40 41 42 42 42 43 44 44 45 45 45 45 46 46 47 47 48 48 47 47 47 47 46 45 45 45 45 45 44 44 44 44 45 45 45 44 44 44
35 36 36 37 38 39 40 39 39 39 39 40 40 41 42 42 43 44 45 45 45 46 46 46 47 48 49 49 50 50 50 49 49 48 48 47 47 47 47 46 47 46 46 47 47 47 48 47 46
36 37 37 39 39 40 41 40 38 38 39 39 40 41 42 42 42 43 44 45 46 46 46 47 48 48 49 50 51 52 52 51 51 51 51 50 50 49 49 48 48 48 48 48 49 50 50 49 48
38 38 39 40 41 42 42 43 40 39 39 39 40 41 42 43 43 44 44 45 45 46 46 47 47 48 49 50 51 51 52 52 52 52 53 52 52 51 51 51 51 51 51 51 51 51 51 51 51
39 39 40 41 42 43 42 44 42 40 39 39 40 41 42 43 44 45 45 45 46 47 47 47 48 48 49 49 49 50 51 52 52 53 54 54 54 54 54 53 53 53 53 54 54 53 53 54 54
39 40 41 42 42 44 41 43 44 41 38 38 39 41 41 42 44 45 45 46 47 47 48 48 48 48 49 50 50 51 52 53 53 53 54 54 55 55 55 55 56 56 55 55 55 56 55 55 55
38 39 40 41 42 43 40 42 43 40 39 39 39 40 41 42 43 44 45 46 47 47 48 49 49 49 50 51 51 52 53 53 54 53 54 54 55 55 56 57 57 57 57 56 56 56 55 55 56
37 37 37 39 40 40 40 41 40 39 39 38 38 39 41 42 42 43 44 45 46 48 49 49 49 49 50 51 52 53 53 54 54 54 55 54 55 56 56 57 57 57 57 57 57 56 55 55 56
36 35 35 36 38 40 41 41 39 38 37 37 38 39 39 40 41 42 42 44 45 47 48 49 49 50 51 52 53 53 53 54 54 55 55 56 55 55 56 57 57 57 57 57 57 57 57 57 56
34 34 34 34 36 39 40 40 39 38 37 37 38 39 40 40 40 41 42 43 44 46 47 48 49 50 51 51 53 54 54 54 54 55 55 55 55 55 55 56 56 57 57 58 58 58 58 58 57
33 33 34 36 37 38 40 39 37 38 38 38 38 39 40 41 41 42 42 43 44 46 46 47 49 49 50 51 53 54 54 54 55 55 55 55 56 56 55 55 56 57 57 58 58 58 58 58 58
34 34 34 36 37 38 40 39 36 36 37 38 39 39 40 41 42 42 43 43 44 45 45 46 47 48 49 50 51 53 54 54 54 54 55 55 55 55 56 56 56 57 57 58 58 58 58 58 58
Wind_Direction
246 245 245 244 245 245 247 247 248 247 246 247 247 247 248 249 250 250 248 247 246 245 245 244 243 242 242 242 242 242 242 240 239 238 240 243 243 243 241 240 239 240 239 238 238 237 236 234 232
248 246 246 246 246 247 247 248 248 249 247 247 248 249 249 250 250 250 248 246 245 245 244 244 243 242 243 243 243 242 242 242 241 240 242 244 246 247 247 247 247 246 245 243 243 242 240 238 237
251 248 247 248 248 249 250 250 249 249 249 249 249 249 249 250 251 250 248 248 246 244 244 244 243 243 243 244 244 243 243 244 243 243 243 245 247 249 250 251 252 251 249 248 247 247 244 242 241
252 251 249 248 249 250 253 251 251 250 251 250 250 250 250 250 249 249 247 247 245 245 245 245 244 243 243 244 245 245 245 245 245 245 246 247 249 251 251 251 253 252 251 249 249 248 247 246 244
254 253 252 252 252 252 253 253 254 252 251 252 252 251 251 250 250 249 248 247 246 245 245 246 246 245 245 246 247 247 247 247 247 248 248 249 250 252 252 251 252 253 252 252 251 250 249 249 248
256 255 254 254 254 254 254 254 254 254 253 253 253 252 251 251 250 249 249 248 248 246 245 246 247 248 247 247 248 248 249 249 250 250 250 250 251 252 252 252 252 252 252 250 250 252 251 251 250
257 257 256 256 256 256 256 255 255 254 253 253 253 252 251 251 251 250 250 249 249 248 247 246 247 248 248 249 250 250 251 251 251 253 253 253 253 253 253 253 253 251 250 250 250 251 252 251 251
258 259 258 258 258 258 257 256 255 255 253 253 254 253 251 252 252 252 251 251 250 250 249 248 248 248 249 250 251 252 252 253 254 255 255 254 254 255 254 254 254 253 252 251 251 252 253 253 252
261 261 260 259 259 258 257 256 256 255 254 253 254 254 252 252 252 253 252 252 251 251 251 250 249 249 250 251 252 252 253 255 256 256 256 256 255 255 254 254 254 253 253 252 252 254 255 254 254
263 263 262 260 259 258 258 257 256 256 255 255 255 254 253 253 253 253 253 252 252 252 252 251 251 250 251 252 253 253 254 256 257 257 257 257 256 256 256 255 254 253 253 253 253 254 255 254 254
265 264 262 261 260 259 258 257 257 257 256 255 255 255 255 254 254 254 254 254 253 253 252 252 252 252 252 253 254 255 255 256 257 259 259 258 257 256 257 257 255 254 253 253 253 253 255 255 254
266 265 263 262 261 260 259 258 258 257 257 256 255 256 256 255 255 255 255 255 254 253 253 253 253 253 254 254 254 255 256 257 258 258 258 258 258 257 257 257 256 255 254 253 253 253 254 254 255
267 265 264 263 262 261 261 260 260 259 258 257 256 256 256 256 255 255 255 255 255 254 254 253 253 254 254 255 255 255 256 257 257 257 257 258 258 258 257 257 258 258 256 254 253 253 254 254 255
269 266 265 264 263 262 262 261 261 260 259 259 258 257 257 257 256 256 256 256 255 255 254 254 253 253 254 255 255 256 256 256 257 258 258 259 259 259 258 258 258 258 257 256 255 254 255 255 255
270 268 266 265 264 263 263 261 262 260 259 259 259 258 257 257 257 257 257 256 256 255 254 254 254 254 254 254 255 256 256 257 257 259 259 260 260 261 260 259 259 258 258 257 255 256 256 257 256
272 270 269 268 266 265 264 263 262 261 260 259 259 259 258 258 258 258 257 256 256 255 255 255 255 255 254 254 255 256 257 257 258 259 259 260 260 261 262 261 261 260 259 258 256 257 257 257 256
274 274 273 271 268 267 265 265 263 262 262 260 260 259 259 259 258 258 258 257 256 256 256 255 255 255 255 255 255 256 257 258 259 259 260 260 260 262 263 263 263 262 261 259 257 257 258 258 257
277 276 274 272 270 269 267 267 265 264 262 262 261 260 259 259 259 259 258 257 257 256 256 256 256 256 256 255 256 256 258 258 259 259 260 260 261 262 263 263 264 263 262 260 259 259 259 259 259
276 276 275 273 272 270 269 268 266 265 264 263 262 262 261 260 259 258 258 257 257 257 257 257 257 256 256 256 256 256 257 258 259 260 261 261 261 262 262 262 263 263 262 261 261 261 261 261 260
276 276 275 274 272 272 270 268 266 266 264 264 263 262 262 261 260 259 258 258 257 257 257 257 257 257 256 256 256 256 257 258 258 260 261 261 262 262 263 263 264 264 263 262 262 262 261 261 261
276 276 275 275 273 272 271 269 267 266 266 265 264 263 262 262 261 259 258 258 258 258 258 258 258 257 257 256 256 256 257 257 259 260 261 261 262 262 262 263 263 264 264 263 263 262 262 262 261
275 275 275 275 275 273 273 272 268 268 268 267 265 264 263 262 262 260 259 258 258 258 258 258 258 258 257 257 258 258 258 258 259 260 261 261 262 262 262 263 263 264 264 264 263 263 262 262 262
276 276 275 275 274 273 273 273 272 269 268 268 267 266 265 263 262 261 260 259 258 258 259 259 259 259 258 257 258 258 258 258 259 260 260 261 261 262 262 263 263 264 265 264 264 264 263 262 262
278 276 275 275 274 273 274 274 273 272 271 270 269 268 267 265 264 263 262 261 260 259 259 259 260 260 259 258 258 258 258 258 259 261 261 261 261 262 263 263 263 264 264 264 264 264 263 263 262
279 279 278 276 275 275 275 273 275 275 274 272 271 269 268 267 266 265 264 263 262 261 261 260 261 262 261 260 258 258 259 259 260 261 262 262 263 263 263 264 264 264 264 264 264 263 262 262 262
281 279 279 279 278 277 276 275 276 276 276 274 273 272 271 270 268 267 266 264 263 263 263 262 262 263 262 261 260 259 260 260 261 261 262 263 264 264 264 264 264 264 263 263 263 262 262 262 261
280 277 278 279 279 277 277 278 278 278 277 276 274 274 273 272 270 269 267 266 265 265 265 264 264 264 264 263 261 260 260 261 261 262 263 264 264 264 264 264 264 264 263 263 263 263 262 262 262
281 279 278 278 279 278 279 280 280 279 278 277 275 273 273 273 272 271 270 268 267 266 266 266 265 265 264 263 262 261 261 261 262 263 263 264 265 265 265 264 264 263 263 263 262 263 264 263 262
281 280 278 278 277 279 281 281 281 281 281 280 278 275 274 273 273 272 272 270 269 268 267 267 266 266 265 264 262 261 261 262 262 263 264 265 265 265 265 264 263 263 263 263 262 263 263 262 262
282 281 281 280 280 279 280 281 281 281 281 279 278 277 275 274 273 273 273 271 270 269 268 267 267 267 267 265 264 262 261 262 263 263 264 265 266 266 266 265 265 264 263 263 262 262 262 262 262
Height
5788 5789 5791 5792 5794 5795 5796 5798 5799 5800 5802 5803 5804 5806 5807 5808 5810 5814 5813 5813 5814 5815 5816 5817 5818 5819 5820 5822 5823 5824 5825 5826 5827 5828 5829 5830 5831 5832 5833 5834 5835 5836 5837 5838 5839 5840 5840 5841 5843
5785 5786 5788 5789 5790 5791 5793 5794 5796 5797 5799 5800 5801 5803 5804 5805 5806 5808 5808 5809 5811 5812 5813 5814 5815 5817 5818 5819 5820 5821 5822 5823 5825 5826 5827 5828 5829 5830 5831 5832 5833 5834 5835 5835 5837 5838 5838 5839 5841
5781 5782 5784 5785 5786 5788 5789 5791 5792 5793 5795 5796 5798 5799 5801 5802 5803 5804 5805 5806 5807 5809 5810 5811 5812 5814 5815 5816 5817 5818 5819 5820 5822 5823 5824 5825 5826 5827 5828 5829 5830 5831 5832 5833 5834 5835 5836 5837 5838
5777 5779 5780 5781 5782 5784 5785 5787 5787 5789 5791 5792 5793 5795 5796 5798 5799 5800 5801 5802 5804 5805 5806 5808 5809 5810 5811 5813 5814 5815 5816 5817 5819 5820 5821 5822 5823 5824 5825 5826 5827 5828 5829 5830 5832 5833 5834 5835 5836
5773 5774 5775 5776 5778 5780 5781 5783 5783 5785 5787 5788 5789 5791 5792 5794 5795 5796 5797 5799 5800 5801 5803 5804 5805 5806 5808 5809 5810 5812 5813 5814 5815 5816 5817 5818 5819 5821 5822 5823 5824 5825 5826 5827 5828 5830 5831 5832 5833
5769 5769 5770 5771 5773 5775 5777 5778 5779 5780 5782 5783 5784 5786 5788 5789 5790 5791 5793 5794 5795 5797 5799 5800 5801 5802 5804 5805 5806 5807 5809 5810 5811 5812 5813 5814 5816 5817 5818 5819 5820 5821 5823 5824 5825 5826 5827 5828 5829
5764 5764 5765 5767 5768 5770 5772 5772 5773 5775 5776 5778 5779 5781 5783 5784 5785 5786 5788 5789 5791 5792 5794 5795 5797 5798 5799 5801 5802 5803 5804 5805 5806 5808 5809 5810 5811 5812 5813 5814 5816 5817 5819 5820 5821 5822 5823 5825 5826
5758 5759 5760 5762 5763 5765 5766 5767 5767 5769 5771 5772 5773 5775 5778 5779 5780 5781 5782 5784 5785 5787 5788 5790 5791 5793 5794 5796 5797 5798 5800 5801 5802 5803 5804 5805 5806 5807 5809 5810 5811 5813 5814 5815 5817 5818 5819 5820 5821
5753 5755 5755 5757 5757 5759 5759 5760 5761 5763 5764 5766 5767 5769 5771 5772 5774 5775 5777 5778 5780 5781 5783 5784 5786 5787 5789 5790 5792 5793 5794 5796 5797 5798 5799 5800 5801 5802 5803 5804 5806 5807 5809 5810 5812 5813 5814 5815 5817
5748 5749 5751 5751 5751 5752 5753 5754 5755 5756 5758 5760 5760 5762 5764 5766 5767 5769 5770 5772 5773 5775 5776 5778 5779 5781 5783 5784 5786 5787 5789 5790 5791 5792 5793 5794 5795 5796 5797 5799 5800 5801 5803 5804 5806 5807 5809 5810 5812
5741 5743 5744 5743 5744 5745 5746 5747 5748 5750 5751 5753 5754 5755 5757 5758 5760 5762 5763 5765 5767 5768 5770 5771 5772 5774 5776 5778 5779 5781 5782 5784 5785 5786 5787 5788 5789 5790 5791 5792 5794 5795 5797 5798 5800 5801 5803 5804 5806
5735 5736 5736 5736 5737 5737 5738 5740 5741 5742 5744 5745 5746 5747 5749 5751 5752 5754 5756 5758 5759 5761 5762 5764 5765 5767 5768 5770 5772 5773 5775 5777 5778 5779 5780 5781 5782 5783 5784 5786 5787 5788 5790 5791 5793 5794 5796 5798 5799
5728 5728 5728 5729 5729 5730 5730 5732 5733 5735 5736 5737 5738 5739 5741 5743 5744 5746 5748 5749 5751 5753 5754 5756 5757 5759 5760 5762 5764 5766 5767 5769 5770 5771 5773 5774 5775 5776 5777 5778 5779 5781 5782 5784 5786 5787 5789 5791 5792
5720 5720 5720 5721 5721 5722 5722 5723 5725 5728 5727 5728 5729 5731 5732 5734 5735 5737 5739 5740 5742 5743 5745 5747 5748 5750 5752 5754 5755 5757 5759 5760 5761 5763 5764 5766 5767 5768 5769 5771 5772 5773 5774 5775 5777 5779 5781 5783 5784
5712 5711 5712 5713 5713 5713 5713 5715 5717 5718 5718 5719 5720 5722 5723 5725 5726 5728 5729 5730 5732 5734 5735 5737 5739 5741 5743 5745 5746 5748 5750 5751 5753 5754 5756 5757 5758 5760 5761 5762 5763 5764 5766 5767 5769 5771 5772 5774 5776
5703 5703 5703 5705 5704 5703 5705 5706 5709 5708 5708 5709 5711 5712 5714 5715 5716 5718 5719 5720 5722 5723 5725 5727 5729 5731 5733 5735 5737 5739 5740 5742 5743 5745 5746 5748 5749 5751 5752 5753 5754 5755 5756 5758 5760 5761 5763 5765 5766
5695 5694 5694 5695 5695 5694 5694 5696 5699 5698 5698 5699 5701 5702 5704 5705 5706 5707 5708 5710 5711 5713 5715 5717 5718 5720 5723 5725 5727 5729 5731 5732 5734 5735 5737 5738 5739 5741 5742 5743 5744 5745 5746 5748 5750 5751 5753 5755 5756
5686 5685 5685 5684 5684 5683 5683 5685 5687 5687 5687 5689 5690 5691 5693 5694 5695 5696 5697 5699 5700 5702 5704 5706 5708 5709 5711 5714 5716 5718 5720 5722 5723 5725 5726 5728 5729 5730 5732 5733 5733 5735 5736 5737 5739 5740 5742 5744 5745
5676 5675 5674 5674 5673 5672 5672 5674 5676 5676 5677 5678 5679 5680 5681 5683 5683 5684 5686 5687 5689 5691 5692 5694 5696 5698 5700 5702 5705 5707 5709 5710 5712 5714 5715 5717 5718 5719 5720 5722 5722 5723 5725 5726 5727 5729 5730 5732 5734
5667 5665 5665 5664 5663 5661 5661 5663 5665 5665 5666 5667 5668 5668 5669 5670 5671 5673 5674 5676 5677 5679 5680 5682 5683 5685 5687 5690 5692 5694 5696 5698 5700 5702 5703 5705 5706 5707 5708 5710 5711 5712 5713 5714 5715 5717 5718 5720 5721
5657 5656 5655 5653 5652 5651 5650 5651 5654 5655 5655 5656 5656 5657 5657 5659 5660 5661 5662 5664 5665 5667 5668 5669 5671 5672 5675 5677 5679 5681 5683 5685 5688 5689 5691 5692 5694 5695 5696 5697 5699 5699 5700 5701 5702 5704 5705 5707 5709
5647 5646 5644 5642 5641 5640 5640 5638 5644 5644 5644 5644 5645 5645 5646 5647 5647 5649 5650 5651 5653 5654 5655 5656 5658 5659 5661 5663 5665 5667 5670 5672 5675 5676 5678 5679 5680 5682 5683 5684 5685 5686 5687 5688 5689 5690 5692 5693 5695
5636 5635 5633 5631 5629 5628 5629 5626 5631 5632 5632 5633 5633 5633 5634 5634 5635 5636 5637 5638 5640 5641 5642 5643 5645 5646 5648 5650 5652 5653 5656 5658 5660 5661 5664 5665 5667 5668 5669 5670 5671 5672 5673 5674 5675 5676 5677 5679 5680
5626 5624 5622 5620 5618 5617 5620 5617 5617 5620 5622 5622 5622 5621 5621 5622 5622 5623 5624 5625 5627 5628 5629 5630 5631 5633 5634 5635 5637 5639 5641 5643 5645 5647 5649 5650 5652 5653 5654 5655 5656 5657 5658 5659 5660 5661 5662 5663 5665
5616 5614 5611 5608 5607 5607 5609 5606 5607 5610 5610 5610 5610 5609 5609 5609 5609 5610 5611 5612 5613 5614 5616 5617 5618 5619 5620 5621 5623 5625 5627 5629 5630 5632 5633 5635 5636 5638 5639 5639 5640 5641 5642 5643 5644 5645 5647 5648 5649
5605 5603 5602 5599 5597 5597 5597 5595 5599 5599 5599 5598 5598 5598 5597 5597 5597 5598 5598 5599 5600 5600 5601 5603 5604 5605 5606 5607 5609 5610 5612 5614 5615 5617 5618 5619 5620 5622 5622 5623 5624 5625 5626 5627 5629 5630 5631 5633 5634
5594 5593 5592 5589 5586 5585 5585 5586 5589 5588 5588 5587 5587 5586 5586 5585 5585 5585 5585 5586 5586 5587 5588 5589 5590 5591 5591 5592 5594 5595 5596 5598 5600 5601 5602 5603 5604 5605 5606 5607 5608 5609 5610 5611 5613 5614 5615 5617 5618
5586 5584 5582 5579 5576 5574 5575 5576 5578 5577 5576 5576 5575 5575 5574 5573 5573 5573 5573 5573 5573 5574 5574 5575 5575 5576 5577 5577 5578 5579 5581 5582 5584 5585 5586 5587 5587 5588 5589 5590 5591 5592 5593 5594 5596 5597 5599 5600 5602
5577 5575 5572 5570 5568 5566 5564 5568 5568 5567 5565 5564 5564 5563 5562 5562 5561 5561 5560 5560 5560 5560 5560 5560 5561 5561 5561 5562 5563 5564 5565 5566 5568 5569 5570 5571 5571 5572 5572 5573 5574 5575 5576 5577 5579 5580 5582 5583 5584
5566 5565 5563 5561 5559 5557 5554 5558 5558 5557 5554 5553 5552 5551 5550 5549 5549 5548 5547 5547 5547 5546 5546 5546 5546 5546 5546 5546 5547 5548 5549 5551 5552 5553 5554 5555 5555 5555 5556 5556 5557 5558 5559 5560 5561 5563 5565 5566 5567